TimeEST,TemperatureF,Dew PointF,Humidity,Sea Level PressureIn,VisibilityMPH,Wind Direction,Wind SpeedMPH,Gust SpeedMPH,PrecipitationIn,Events,Conditions,WindDirDegrees,DateUTC
12:54 AM,63.0,59.0,87,30.08,10.0,South,6.9,-,N/A,,Clear,190,2013-01-14 05:54:00
1:54 AM,63.0,60.1,90,30.08,10.0,South,4.6,-,N/A,,Mostly Cloudy,170,2013-01-14 06:54:00
2:54 AM,63.0,59.0,87,30.09,10.0,SSW,8.1,-,N/A,,Overcast,200,2013-01-14 07:54:00
3:54 AM,62.1,59.0,90,30.09,10.0,SSW,5.8,-,N/A,,Overcast,200,2013-01-14 08:54:00
5:54 AM,62.1,57.9,86,30.07,10.0,South,3.5,-,N/A,,Mostly Cloudy,180,2013-01-14 10:54:00
6:54 AM,61.0,57.9,90,30.09,10.0,South,4.6,-,0.00,,Mostly Cloudy,180,2013-01-14 11:54:00
7:54 AM,61.0,57.9,90,30.10,9.0,South,4.6,-,0.00,Rain,Light Rain,170,2013-01-14 12:54:00
8:54 AM,61.0,59.0,93,30.12,7.0,SSW,6.9,-,0.00,Rain,Light Rain,200,2013-01-14 13:54:00
9:54 AM,61.0,60.1,97,30.12,7.0,South,6.9,-,0.02,,Overcast,190,2013-01-14 14:54:00
10:54 AM,63.0,61.0,93,30.12,7.0,SSW,6.9,-,0.00,Rain,Light Rain,210,2013-01-14 15:54:00
11:30 AM,64.0,62.1,93,30.14,6.0,SW,9.2,-,0.00,Rain,Light Rain,220,2013-01-14 16:30:00
11:54 AM,64.0,63.0,96,30.10,5.0,SSW,9.2,-,0.02,Rain,Light Rain,210,2013-01-14 16:54:00
12:54 PM,64.9,64.0,97,30.07,7.0,WSW,3.5,-,0.01,,Overcast,240,2013-01-14 17:54:00
1:54 PM,69.1,64.0,84,30.05,9.0,SSW,5.8,-,N/A,,Mostly Cloudy,200,2013-01-14 18:54:00
2:26 PM,69.1,63.0,81,30.09,10.0,SW,8.1,-,N/A,,Mostly Cloudy,220,2013-01-14 19:26:00
2:42 PM,70.0,63.0,78,30.08,10.0,South,4.6,-,N/A,,Scattered Clouds,190,2013-01-14 19:42:00
3:54 PM,71.1,63.0,75,30.07,10.0,Calm,Calm,-,N/A,,Overcast,0,2013-01-14 20:54:00
4:54 PM,69.1,64.0,84,30.09,9.0,North,3.5,-,N/A,,Mostly Cloudy,10,2013-01-14 21:54:00
5:54 PM,66.9,64.0,90,30.09,9.0,Calm,Calm,-,N/A,,Mostly Cloudy,0,2013-01-14 22:54:00
6:54 PM,63.0,62.1,97,30.10,7.0,Calm,Calm,-,N/A,,Scattered Clouds,0,2013-01-14 23:54:00
7:54 PM,61.0,61.0,100,30.11,2.5,Calm,Calm,-,N/A,,Clear,0,2013-01-15 00:54:00
8:06 PM,61.0,60.1,97,30.11,1.0,Calm,Calm,-,N/A,,Clear,0,2013-01-15 01:06:00
8:10 PM,61.0,61.0,100,30.11,0.5,Calm,Calm,-,N/A,Fog,Fog,0,2013-01-15 01:10:00
8:31 PM,60.1,60.1,100,30.11,1.0,Calm,Calm,-,N/A,,Clear,0,2013-01-15 01:31:00
8:40 PM,61.0,61.0,100,30.11,2.5,SSE,3.5,-,N/A,,Clear,160,2013-01-15 01:40:00
8:54 PM,61.0,61.0,100,30.09,7.0,South,3.5,-,N/A,,Clear,180,2013-01-15 01:54:00
9:54 PM,63.0,60.1,90,30.09,9.0,SSW,5.8,-,N/A,,Clear,210,2013-01-15 02:54:00
10:54 PM,64.0,60.1,87,30.09,9.0,South,5.8,-,N/A,,Clear,190,2013-01-15 03:54:00
11:54 PM,63.0,60.1,90,30.10,9.0,SSW,4.6,-,N/A,,Overcast,210,2013-01-15 04:54:00